"Period start","avg(HW err(1)/warn(2) (#))","avg(Visibility (m))","avg(Weather code (#))","avg(Precip intensity (mm/h))","min(HW err(1)/warn(2) (#))","max(HW err(1)/warn(2) (#))","std(HW err(1)/warn(2) (#))","med(HW err(1)/warn(2) (#))","min(Visibility (m))","max(Visibility (m))","std(Visibility (m))","med(Visibility (m))","min(Weather code (#))","max(Weather code (#))","std(Weather code (#))","med(Weather code (#))","min(Precip intensity (mm/h))","max(Precip intensity (mm/h))","std(Precip intensity (mm/h))","med(Precip intensity (mm/h))"
2016-04-20 00:00:00,2,5987,10,0.00,2,2,0,2,2684,9789,2596,5887,10,10,0,10,0.00,0.00,0.00,0.00
2016-04-20 00:10:00,1,1923,10,0.00,1,2,0,1,0,2764,1125,2464,10,10,0,10,0.00,0.00,0.00,0.00
2016-04-20 00:20:00,1,,,,1,1,0,1,,,,,,,,,,,,
2016-04-20 00:30:00,1,,,,1,1,0,1,,,,,,,,,,,,
2016-04-20 00:40:00,1,,,,1,1,0,1,,,,,,,,,,,,
2016-04-20 00:50:00,1,,,,1,1,0,1,,,,,,,,,,,,
2016-04-20 01:00:00,1,,,,1,1,0,1,,,,,,,,,,,,
2016-04-20 01:10:00,1,,,,1,1,0,1,,,,,,,,,,,,
2016-04-20 01:20:00,1,,,,1,1,0,1,,,,,,,,,,,,
2016-04-20 01:30:00,1,,,,1,1,0,1,,,,,,,,,,,,
2016-04-20 01:40:00,1,,,,1,1,0,1,,,,,,,,,,,,
2016-04-20 01:50:00,1,,,,1,1,0,1,,,,,,,,,,,,
2016-04-20 02:00:00,1,,,,1,1,0,1,,,,,,,,,,,,
2016-04-20 02:10:00,1,,,,1,1,0,1,,,,,,,,,,,,
2016-04-20 02:20:00,1,,,,1,1,0,1,,,,,,,,,,,,
2016-04-20 02:30:00,1,,,,1,1,0,1,,,,,,,,,,,,
2016-04-20 02:40:00,1,,,,1,1,0,1,,,,,,,,,,,,
2016-04-20 02:50:00,1,,,,1,1,0,1,,,,,,,,,,,,
2016-04-20 03:00:00,2,2414,,0.00,1,2,0,2,0,3996,1243,2500,,,,,0.00,0.00,0.00,0.00
2016-04-20 03:10:00,2,16232,,0.00,1,2,0,2,0,40512,13762,13699,,,,,0.00,0.00,0.00,0.00
2016-04-20 03:20:00,2,26044,4,0.00,2,2,0,2,14556,37883,7177,27166,0,10,5,0,0.00,0.00,0.00,0.00
2016-04-20 03:30:00,2,39803,0,0.00,2,2,0,2,29275,50000,6876,40181,0,0,0,0,0.00,0.00,0.00,0.00
2016-04-20 03:40:00,2,29830,0,0.00,2,2,0,2,21583,36936,4778,29831,0,0,0,0,0.00,0.00,0.00,0.00
2016-04-20 03:50:00,2,32552,0,0.00,2,2,0,2,20457,45375,9219,31626,0,0,0,0,0.00,0.00,0.00,0.00
2016-04-20 04:00:00,2,36565,0,0.00,2,2,0,2,25927,50000,9020,33319,0,0,0,0,0.00,0.00,0.00,0.00
2016-04-20 04:10:00,2,36696,0,0.00,2,2,0,2,29461,45775,4692,36172,0,0,0,0,0.00,0.00,0.00,0.00
2016-04-20 04:20:00,2,35145,0,0.00,2,2,0,2,23322,50000,9210,34042,0,0,0,0,0.00,0.00,0.00,0.00
2016-04-20 04:30:00,2,37780,0,0.00,2,2,0,2,27906,50000,8683,36252,0,0,0,0,0.00,0.00,0.00,0.00
2016-04-20 04:40:00,2,36353,0,0.00,2,2,0,2,22563,50000,8902,36104,0,0,0,0,0.00,0.00,0.00,0.00
2016-04-20 04:50:00,2,36410,0,0.00,2,2,0,2,22561,46024,7425,35914,0,0,0,0,0.00,0.00,0.00,0.00
2016-04-20 05:00:00,2,42117,0,0.00,2,2,0,2,30167,50000,6113,41962,0,0,0,0,0.00,0.00,0.00,0.00
2016-04-20 05:10:00,2,36110,0,0.00,2,2,0,2,26330,46910,7201,34273,0,0,0,0,0.00,0.00,0.00,0.00
2016-04-20 05:20:00,2,41873,0,0.00,2,2,0,2,29424,50000,6761,42757,0,0,0,0,0.00,0.00,0.00,0.00
2016-04-20 05:30:00,2,43294,0,0.00,2,2,0,2,30969,50000,5706,42246,0,0,0,0,0.00,0.00,0.00,0.00
2016-04-20 05:40:00,2,43200,0,0.00,2,2,0,2,36179,50000,5045,43043,0,0,0,0,0.00,0.00,0.00,0.00
2016-04-20 05:50:00,2,38738,0,0.00,2,2,0,2,21804,50000,8444,39994,0,0,0,0,0.00,0.00,0.00,0.00
2016-04-20 06:00:00,2,34045,0,0.00,2,2,0,2,20634,50000,8524,35758,0,0,0,0,0.00,0.00,0.00,0.00
2016-04-20 06:10:00,2,34225,0,0.00,2,2,0,2,17710,42423,7509,36408,0,0,0,0,0.00,0.00,0.00,0.00
2016-04-20 06:20:00,2,42383,0,0.00,2,2,0,2,28218,50000,6942,43507,0,0,0,0,0.00,0.00,0.00,0.00
2016-04-20 06:30:00,2,39472,0,0.00,2,2,0,2,29326,49981,6699,36888,0,0,0,0,0.00,0.00,0.00,0.00
2016-04-20 06:40:00,2,47046,0,0.00,2,2,0,2,39676,50000,3455,48634,0,0,0,0,0.00,0.00,0.00,0.00
2016-04-20 06:50:00,2,35707,0,0.00,2,2,0,2,22838,43403,6867,37018,0,0,0,0,0.00,0.00,0.00,0.00
2016-04-20 07:00:00,2,38970,0,0.00,2,2,0,2,28887,48454,5876,39316,0,0,0,0,0.00,0.00,0.00,0.00
2016-04-20 07:10:00,2,41054,0,0.00,2,2,0,2,22633,50000,8668,45030,0,0,0,0,0.00,0.00,0.00,0.00
2016-04-20 07:20:00,2,47279,0,0.00,2,2,0,2,35268,50000,4346,49600,0,0,0,0,0.00,0.00,0.00,0.00
2016-04-20 07:30:00,2,36907,0,0.00,2,2,0,2,24527,46241,5993,37032,0,0,0,0,0.00,0.00,0.00,0.00
2016-04-20 07:40:00,2,35954,0,0.00,2,2,0,2,28522,44762,5156,33996,0,0,0,0,0.00,0.00,0.00,0.00
2016-04-20 07:50:00,2,34797,0,0.00,2,2,0,2,19382,46637,7848,34944,0,0,0,0,0.00,0.00,0.00,0.00
2016-04-20 08:00:00,2,33982,0,0.00,2,2,0,2,21773,49334,8856,32898,0,0,0,0,0.00,0.00,0.00,0.00
2016-04-20 08:10:00,2,40190,0,0.00,2,2,0,2,29104,50000,7546,43134,0,0,0,0,0.00,0.00,0.00,0.00
2016-04-20 08:20:00,2,36806,0,0.00,2,2,0,2,28699,48010,6388,36208,0,0,0,0,0.00,0.00,0.00,0.00
2016-04-20 08:30:00,2,35024,0,0.00,2,2,0,2,25155,50000,7408,33514,0,0,0,0,0.00,0.00,0.00,0.00
2016-04-20 08:40:00,2,37772,0,0.00,2,2,0,2,26616,50000,7642,38464,0,0,0,0,0.00,0.00,0.00,0.00
2016-04-20 08:50:00,2,39829,0,0.00,2,2,0,2,29751,47567,5856,41170,0,0,0,0,0.00,0.00,0.00,0.00
2016-04-20 09:00:00,2,43886,0,0.00,2,2,0,2,34226,50000,5138,43399,0,0,0,0,0.00,0.00,0.00,0.00
2016-04-20 09:10:00,2,43982,0,0.00,2,2,0,2,37775,50000,3521,43878,0,0,0,0,0.00,0.00,0.00,0.00
2016-04-20 09:20:00,2,45239,0,0.00,2,2,0,2,36847,50000,4163,46420,0,0,0,0,0.00,0.00,0.00,0.00
2016-04-20 09:30:00,2,30509,0,0.00,2,2,0,2,21206,42011,6670,30526,0,0,0,0,0.00,0.00,0.00,0.00
2016-04-20 09:40:00,2,38284,0,0.00,2,2,0,2,31674,49794,5653,38058,0,0,0,0,0.00,0.00,0.00,0.00
2016-04-20 09:50:00,2,40704,0,0.00,2,2,0,2,30065,48572,4411,41291,0,0,0,0,0.00,0.00,0.00,0.00
2016-04-20 10:00:00,2,47506,0,0.00,2,2,0,2,41941,50000,3061,49456,0,0,0,0,0.00,0.00,0.00,0.00
2016-04-20 10:10:00,2,39607,0,0.00,2,2,0,2,31445,48858,5462,38929,0,0,0,0,0.00,0.00,0.00,0.00
2016-04-20 10:20:00,2,46831,0,0.00,2,2,0,2,41516,50000,2700,47044,0,0,0,0,0.00,0.00,0.00,0.00
2016-04-20 10:30:00,2,43744,0,0.00,2,2,0,2,34172,50000,4760,42672,0,0,0,0,0.00,0.00,0.00,0.00
2016-04-20 10:40:00,2,44215,0,0.00,2,2,0,2,38009,50000,4277,44188,0,0,0,0,0.00,0.00,0.00,0.00
2016-04-20 10:50:00,2,40685,68,0.03,2,2,0,2,24746,49522,8373,43346,0,77,23,77,0.00,0.05,0.03,0.03
2016-04-20 11:00:00,2,42398,77,0.02,2,2,0,2,38040,46668,2776,42663,77,77,0,77,0.00,0.05,0.02,0.00
2016-04-20 11:10:00,2,42522,8,0.00,2,2,0,2,34895,49922,4474,41705,0,77,23,0,0.00,0.00,0.00,0.00
2016-04-20 11:20:00,2,49208,0,0.00,2,2,0,2,46605,50000,1236,50000,0,0,0,0,0.00,0.00,0.00,0.00
2016-04-20 11:30:00,2,49574,0,0.00,2,2,0,2,46594,50000,1026,50000,0,0,0,0,0.00,0.00,0.00,0.00
2016-04-20 11:40:00,2,45548,0,0.00,2,2,0,2,40500,50000,2754,44876,0,0,0,0,0.00,0.00,0.00,0.00
2016-04-20 11:50:00,2,49314,0,0.00,2,2,0,2,47542,50000,909,50000,0,0,0,0,0.00,0.00,0.00,0.00
2016-04-20 12:00:00,2,48584,0,0.00,2,2,0,2,45309,50000,1589,49093,0,0,0,0,0.00,0.00,0.00,0.00
2016-04-20 12:10:00,2,49042,0,0.00,2,2,0,2,44705,50000,1665,50000,0,0,0,0,0.00,0.00,0.00,0.00
2016-04-20 12:20:00,2,47426,0,0.00,2,2,0,2,40372,50000,3133,48647,0,0,0,0,0.00,0.00,0.00,0.00
2016-04-20 12:30:00,2,48771,0,0.00,2,2,0,2,45487,50000,1458,49436,0,0,0,0,0.00,0.00,0.00,0.00
2016-04-20 12:40:00,2,48272,0,0.00,2,2,0,2,46536,50000,1132,48292,0,0,0,0,0.00,0.00,0.00,0.00
2016-04-20 12:50:00,2,44441,0,0.00,2,2,0,2,36370,50000,4614,44732,0,0,0,0,0.00,0.00,0.00,0.00
2016-04-20 13:00:00,2,41764,0,0.00,2,2,0,2,33838,46090,3598,42260,0,0,0,0,0.00,0.00,0.00,0.00
2016-04-20 13:10:00,2,42227,0,0.00,2,2,0,2,34263,48328,4052,42393,0,0,0,0,0.00,0.00,0.00,0.00
2016-04-20 13:20:00,2,41564,0,0.00,2,2,0,2,37881,46471,2971,41226,0,0,0,0,0.00,0.00,0.00,0.00
2016-04-20 13:30:00,2,40755,0,0.00,2,2,0,2,35311,47586,3510,39882,0,0,0,0,0.00,0.00,0.00,0.00
2016-04-20 13:40:00,2,36932,0,0.00,2,2,0,2,33555,40044,2066,36297,0,0,0,0,0.00,0.00,0.00,0.00
2016-04-20 13:50:00,2,31089,0,0.00,2,2,0,2,26488,38983,3731,30209,0,0,0,0,0.00,0.00,0.00,0.00
2016-04-20 14:00:00,2,22741,0,0.00,2,2,0,2,16754,29040,5186,23726,0,0,0,0,0.00,0.00,0.00,0.00
2016-04-20 14:10:00,2,15602,0,0.00,2,2,0,2,13913,16879,903,15740,0,0,0,0,0.00,0.00,0.00,0.00
2016-04-20 14:20:00,2,17332,0,0.00,2,2,0,2,10810,25022,4215,18158,0,0,0,0,0.00,0.00,0.00,0.00
2016-04-20 14:30:00,2,12841,0,0.00,2,2,0,2,9741,15032,1445,12858,0,0,0,0,0.00,0.00,0.00,0.00
2016-04-20 14:40:00,2,16969,0,0.00,2,2,0,2,11712,21827,2828,16852,0,0,0,0,0.00,0.00,0.00,0.00
2016-04-20 14:50:00,2,20355,0,0.00,2,2,0,2,17847,24213,2017,20033,0,0,0,0,0.00,0.00,0.00,0.00
2016-04-20 15:00:00,2,23574,0,0.00,2,2,0,2,19371,28136,2895,23920,0,0,0,0,0.00,0.00,0.00,0.00
2016-04-20 15:10:00,2,31544,0,0.00,2,2,0,2,25525,38465,3783,31004,0,0,0,0,0.00,0.00,0.00,0.00
2016-04-20 15:20:00,2,28693,0,0.00,2,2,0,2,23790,39060,4651,28008,0,0,0,0,0.00,0.00,0.00,0.00
2016-04-20 15:30:00,2,27672,0,0.00,2,2,0,2,23938,37846,4199,26238,0,0,0,0,0.00,0.00,0.00,0.00
2016-04-20 15:40:00,2,28225,0,0.00,2,2,0,2,24845,34747,2782,27485,0,0,0,0,0.00,0.00,0.00,0.00
2016-04-20 15:50:00,2,25698,0,0.00,2,2,0,2,21683,30440,2766,24540,0,0,0,0,0.00,0.00,0.00,0.00
2016-04-20 16:00:00,2,31008,0,0.00,2,2,0,2,28685,33299,1414,31152,0,0,0,0,0.00,0.00,0.00,0.00
2016-04-20 16:10:00,2,35919,0,0.00,2,2,0,2,32068,40202,3096,36270,0,0,0,0,0.00,0.00,0.00,0.00
2016-04-20 16:20:00,2,35718,0,0.00,2,2,0,2,30686,42205,3916,35498,0,0,0,0,0.00,0.00,0.00,0.00
2016-04-20 16:30:00,2,31029,0,0.00,2,2,0,2,24336,37634,4581,31424,0,0,0,0,0.00,0.00,0.00,0.00
2016-04-20 16:40:00,2,31605,0,0.00,2,2,0,2,27795,34949,2186,32082,0,0,0,0,0.00,0.00,0.00,0.00
2016-04-20 16:50:00,2,32004,0,0.00,2,2,0,2,22414,42038,5427,31980,0,0,0,0,0.00,0.00,0.00,0.00
2016-04-20 17:00:00,2,27181,0,0.00,2,2,0,2,22602,36356,3846,27006,0,0,0,0,0.00,0.00,0.00,0.00
2016-04-20 17:10:00,2,34006,0,0.00,2,2,0,2,28697,38175,3653,35526,0,0,0,0,0.00,0.00,0.00,0.00
2016-04-20 17:20:00,2,29938,0,0.00,2,2,0,2,17763,35612,5939,32025,0,0,0,0,0.00,0.00,0.00,0.00
2016-04-20 17:30:00,2,24883,0,0.00,2,2,0,2,20467,29342,3245,24100,0,0,0,0,0.00,0.00,0.00,0.00
2016-04-20 17:40:00,2,25453,0,0.00,2,2,0,2,20085,28844,2448,25713,0,0,0,0,0.00,0.00,0.00,0.00
2016-04-20 17:50:00,2,25179,0,0.00,2,2,0,2,21839,28187,2125,25708,0,0,0,0,0.00,0.00,0.00,0.00
2016-04-20 18:00:00,2,22899,0,0.00,2,2,0,2,17917,28607,3279,21908,0,0,0,0,0.00,0.00,0.00,0.00
2016-04-20 18:10:00,2,17944,0,0.00,2,2,0,2,14261,21968,2245,17742,0,0,0,0,0.00,0.00,0.00,0.00
2016-04-20 18:20:00,2,19521,0,0.00,2,2,0,2,14182,24148,3111,19142,0,0,0,0,0.00,0.00,0.00,0.00
2016-04-20 18:30:00,2,18531,0,0.00,2,2,0,2,15462,23880,2482,17921,0,0,0,0,0.00,0.00,0.00,0.00
2016-04-20 18:40:00,2,17841,0,0.00,2,2,0,2,15484,20312,1435,17611,0,0,0,0,0.00,0.00,0.00,0.00
2016-04-20 18:50:00,2,16538,0,0.00,2,2,0,2,11854,22023,3604,16360,0,0,0,0,0.00,0.00,0.00,0.00
2016-04-20 19:00:00,2,7992,3,0.00,2,2,0,2,3053,13920,3823,8698,0,10,5,0,0.00,0.00,0.00,0.00
2016-04-20 19:10:00,2,4567,10,0.00,2,2,0,2,1574,7947,1896,4604,10,10,0,10,0.00,0.00,0.00,0.00
2016-04-20 19:20:00,2,5955,10,0.00,2,2,0,2,4841,6907,596,6056,10,10,0,10,0.00,0.00,0.00,0.00
2016-04-20 19:30:00,2,6484,10,0.00,2,2,0,2,5650,8090,842,5988,10,10,0,10,0.00,0.00,0.00,0.00
2016-04-20 19:40:00,2,6792,10,0.00,2,2,0,2,5500,7758,682,6848,10,10,0,10,0.00,0.00,0.00,0.00
2016-04-20 19:50:00,2,4954,10,0.00,2,2,0,2,1754,6890,1894,5782,10,10,0,10,0.00,0.00,0.00,0.00
2016-04-20 20:00:00,2,4826,10,0.00,2,2,0,2,4034,5640,514,4724,10,10,0,10,0.00,0.00,0.00,0.00
2016-04-20 20:10:00,2,5172,10,0.00,2,2,0,2,4424,6036,471,5180,10,10,0,10,0.00,0.00,0.00,0.00
2016-04-20 20:20:00,2,5958,10,0.00,2,2,0,2,4418,6963,793,5898,10,10,0,10,0.00,0.00,0.00,0.00
2016-04-20 20:30:00,2,7386,10,0.00,2,2,0,2,6901,8328,395,7328,10,10,0,10,0.00,0.00,0.00,0.00
2016-04-20 20:40:00,2,7105,10,0.00,2,2,0,2,6522,7744,389,7136,10,10,0,10,0.00,0.00,0.00,0.00
2016-04-20 20:50:00,2,7931,10,0.00,2,2,0,2,7263,8633,435,7889,10,10,0,10,0.00,0.00,0.00,0.00
2016-04-20 21:00:00,2,6921,10,0.00,2,2,0,2,5971,8171,566,6862,10,10,0,10,0.00,0.00,0.00,0.00
2016-04-20 21:10:00,2,4083,10,0.00,2,2,0,2,1794,4971,830,4194,10,10,0,10,0.00,0.00,0.00,0.00
2016-04-20 21:20:00,2,3472,10,0.00,2,2,0,2,1955,5211,995,3408,10,10,0,10,0.00,0.00,0.00,0.00
2016-04-20 21:30:00,2,4951,10,0.00,2,2,0,2,2647,6689,1329,5188,10,10,0,10,0.00,0.00,0.00,0.00
2016-04-20 21:40:00,2,4645,10,0.00,2,2,0,2,2815,7035,1163,4202,10,10,0,10,0.00,0.00,0.00,0.00
2016-04-20 21:50:00,2,4324,10,0.00,2,2,0,2,2998,5176,727,4512,10,10,0,10,0.00,0.00,0.00,0.00
2016-04-20 22:00:00,2,5356,10,0.00,2,2,0,2,3922,6669,817,5563,10,10,0,10,0.00,0.00,0.00,0.00
2016-04-20 22:10:00,2,5708,10,0.00,2,2,0,2,4813,6366,519,5833,10,10,0,10,0.00,0.00,0.00,0.00
2016-04-20 22:20:00,2,6083,10,0.00,2,2,0,2,4306,7374,893,6106,10,10,0,10,0.00,0.00,0.00,0.00
2016-04-20 22:30:00,2,6387,10,0.00,2,2,0,2,5437,8054,756,6158,10,10,0,10,0.00,0.00,0.00,0.00
2016-04-20 22:40:00,2,7197,10,0.00,2,2,0,2,6522,7913,418,7164,10,10,0,10,0.00,0.00,0.00,0.00
2016-04-20 22:50:00,2,8606,10,0.00,2,2,0,2,8002,9444,471,8526,10,10,0,10,0.00,0.00,0.00,0.00
2016-04-20 23:00:00,2,4789,10,0.00,2,2,0,2,2551,8621,2004,3902,10,10,0,10,0.00,0.00,0.00,0.00
2016-04-20 23:10:00,2,8300,10,0.00,2,2,0,2,5308,11043,2379,8812,10,10,0,10,0.00,0.00,0.00,0.00
2016-04-20 23:20:00,2,13798,6,0.00,2,2,0,2,11309,17970,1808,13740,0,10,5,10,0.00,0.00,0.00,0.00
2016-04-20 23:30:00,2,15733,0,0.00,2,2,0,2,12645,18871,1870,15482,0,0,0,0,0.00,0.00,0.00,0.00
2016-04-20 23:40:00,2,15520,0,0.00,2,2,0,2,11675,21309,2998,14508,0,0,0,0,0.00,0.00,0.00,0.00
2016-04-20 23:50:00,2,14292,0,0.00,2,2,0,2,12018,17929,1867,13578,0,0,0,0,0.00,0.00,0.00,0.00
